Regional Weather Roundup
Issued by NWS

Home | Current Version | Previous Version | Graphics & Text | Print | Product List | Glossary On
Versions: 1 2 3 4 5 6 7 8 9 10 11 12 13 14 15 16 17 18 19 20 21 22 23 24 25 26 27 28 29 30 31 32 33 34 35 36 37 38 39 40 41 42 43 44 45 46 47 48 49 50
566
ASUS43 KFSD 251402
RWRSD

WEATHER ROUNDUP FOR SOUTH DAKOTA
NATIONAL WEATHER SERVICE SIOUX FALLS SD
900 AM CDT SUN JUN 25 2017

NOTE: "FAIR" INDICATES FEW OR NO CLOUDS BELOW 12,000 FEET WITH NO
SIGNIFICANT WEATHER AND/OR OBSTRUCTIONS TO VISIBILITY.


SDZ001>005-009-010-012>017-251500-
NORTHWEST AND NORTH CENTRAL SOUTH DAKOTA

CITY           SKY/WX    TMP DP  RH WIND       PRES   REMARKS
BUFFALO          N/A     59  36  42 SW6       30.26S
FAITH            N/A     60  36  40 SW14      30.32S
MOBRIDGE       SUNNY     57  41  55 CALM      30.30R
$$

SDZ012>016-024>037-041>051-057-063-072>074-251500-
SOUTHWEST AND SOUTH CENTRAL SOUTH DAKOTA

CITY           SKY/WX    TMP DP  RH WIND       PRES   REMARKS
RAPID CTY ARPT MOSUNNY   60  35  39 S8        30.35S
PIERRE         NOT AVBL
CUSTER         CLOUDY    51  30  44 S3        30.40S
ELLSWORTH AFB  SUNNY     61  32  33 S13       30.34S
PHILIP         SUNNY     59  40  49 W3        30.34F
PINE RIDGE     SUNNY     62  37  39 S12       30.36R
SPEARFISH      FAIR      59  41  51 CALM      30.35S
WINNER         FAIR      62  42  47 W6        30.36R
$$

SDZ004>011-016>023-039-040-251500-
NORTHEAST SOUTH DAKOTA

CITY           SKY/WX    TMP DP  RH WIND       PRES   REMARKS
ABERDEEN       MOSUNNY   59  43  55 NW8       30.30S
WATERTOWN      SUNNY     56  46  69 NW13      30.27R
BROOKINGS      MOSUNNY   57  47  69 NW14      30.29R
SISSETON         N/A     59  47  64 NW16      30.25S
$$

SDZ017-020-022-023-036>040-048>070-251500-
SOUTHEAST SOUTH DAKOTA

CITY           SKY/WX    TMP DP  RH WIND       PRES   REMARKS
SIOUX FALLS    MOSUNNY   57  47  69 NW14      30.30R
HURON          SUNNY     57  44  62 NW9       30.32S
CHAMBERLAIN    SUNNY     58  44  60 W5        30.35R
YANKTON        SUNNY     60  43  53 NW16      30.33R
$$

ABBREVIATIONS USED IN REMARKS
   TC - TEMPERATURE IN CELSIUS
  WCI - WIND CHILL INDEX
   HX - HEAT INDEX
  VSB - VISIBILITY





USA.gov is the U.S. government's official web portal to all federal, state and local government web resources and services.